Hourly Data Report for October 07, 2017

All times are specified in Local Standard Time (LST). Add 1 hour to adjust for Daylight Saving Time where and when it is observed.

CARIBOU POINT (AUT)
NOVA SCOTIA

45°46'00.000" N
62°41'00.000" W
2.40 m
8200774
71415
WBK

Download Data

Hourly Data (October 2017)
Hourly Data Report for October 7, 2017
Temp Definition
°C
Dew Point Temp Definition
°C
Rel Hum Definition
%
Wind Dir Definition
10's deg

Wind Spd Definition
km/h
Visibility Definition
km
Stn Press Definition
kPa
Hmdx Definition


Wind Chill Definition


Weather Definition


TIME
00:00 11.9 8.7 81 26 15   101.87     LegendNANA
01:00 11.1 8.3 83 26 12   101.92     LegendNANA
02:00 10.4 7.9 85 26 10   101.96     LegendNANA
03:00 10.4 7.9 85 26 11   102.00     LegendNANA
04:00 10.4 7.8 84 25 9   102.07     LegendNANA
05:00 10.5 7.9 84 23 9   102.11     LegendNANA
06:00 9.3 7.4 88 22 10   102.15     LegendNANA
07:00 10.0 8.2 88 24 8   102.19     LegendNANA
08:00 11.6 9.3 86 26 7   102.27     LegendNANA
09:00 13.7 9.9 78 27 10   102.33     LegendNANA
10:00 15.3 10.5 73 32 1   102.36     LegendNANA
11:00 15.6 10.4 71 10 6   102.33     LegendNANA
12:00 15.5 10.8 73 4 9   102.28     LegendNANA
13:00 15.6 10.9 74 5 8   102.23     LegendNANA
14:00 16.6 11.2 70 7 6   102.20     LegendNANA
15:00 16.6 9.8 65 8 6   102.22     LegendNANA
16:00 16.1 11.5 74 10 10   102.14     LegendNANA
17:00 15.4 11.7 78 11 16   102.07     LegendNANA
18:00 14.7 12.1 84 16 3   102.07     LegendNANA
19:00 15.0 11.5 80 20 10   102.09     LegendNANA
20:00 14.2 11.2 82 20 11   102.08     LegendNANA
21:00 14.1 11.7 85 19 22   102.01     LegendNANA
22:00 13.9 11.8 87 20 15   101.96     LegendNANA
23:00 14.2 12.1 87 19 20   101.86     LegendNANA

Notes on Data Quality.

Legend

  • E = Estimated
  • M = Missing
  • NA = Not Available
  • ‡ = Partner data that is not subject to review by the National Climate Archives
Date modified: